General Mariano Escobedo International Airport
MMMY : now visible

Airfield :











YOU CAN JOIN US ON...

 
LOGIN :

Register | Disclaimer

   EN    FR    IT 

 









Legend :    VFR   Marginal VFR   IFR   Intensive IFR   Very Intensive IFR
Visi :
Ceiling :
>= 8 km
>= 3000ft
5 to 8 km
1000 to 3000 ft
1500m to 5 km
500 to 1000 ft
800 to 1500m
200 to 500 ft
< 800m
< 200 ft
Symbols :   Thunderstorms  Fog  Heavy snow  Heavy precipitations  Wind > 20 kt






- Airport Elevation : 1278 ft
- IATA code : MTY


MMMY - General Mariano Escobedo International

CURRENT METAR :
  • 280640Z 32005KT 3SM BR HZ OVC005 06/06 A2999 RMK 8/5//

EXPIRED METARs :
  • 280540Z 33006KT 3SM BR HZ OVC005 07/07 A2998 RMK SLP/// 5//// 9// 8/5//
  • 280440Z 26004KT 6SM OVC010 08/08 A2997 RMK 8/5// HZY

TAF TAF MMMY
Valid from the 28 at 06:00 until the 29 at 12:00 UTC


280523Z 2806/2912 30005KT 6SM HZ OVC010 TX23/2822Z TN08/2812Z
TEMPO 2810/2814 3SM BR BKN006
FM281600 30008KT P6SM BKN020
FM282000 30010KT P6SM SCT020
FM290200 30005KT P6SM SKC
MMFR FIR / North America



MET'MAP, your aeronautical weather chart ! - Copyright ORBIFLY December 2007 - Disclaimer

ORBIFLY MET'MAP TEAM :

Programming & Development : Alexandra Zaïnal
Concept & original design : Baudouin d'Aumeries
Assistance for programming : Marc-Olivier Méhu
Technical & hardware support : Manuel Goepfert

Contact : metmap@orbifly.com




SOURCES & CREDITS :

   NOAA       Earth
Advisory